Previsão horária em Pletenychi

Hoje, 28 Fevereiro, Domingo

Tempo Temperatura Precipitação Vento Pressão Humidade
00:00 -1°C° 0 mm 5 m/s 736 mmHg 87%
01:00 -1°C° 0 mm 5 m/s 737 mmHg 89%
02:00 -3°C° 0 mm 6 m/s 737 mmHg 90%
03:00 -3°C° 0 mm 6 m/s 737 mmHg 91%
04:00 -4°C° 0 mm 6 m/s 737 mmHg 91%
05:00 -4°C° 0 mm 6 m/s 737 mmHg 92%
06:00 -4°C° 0 mm 6 m/s 737 mmHg 91%
07:00 -4°C° 0 mm 6 m/s 737 mmHg 89%
08:00 -4°C° 0 mm 5 m/s 737 mmHg 88%
09:00 -3°C° 0 mm 6 m/s 737 mmHg 82%
10:00 -2°C° 0 mm 6 m/s 737 mmHg 77%
11:00 -1°C° 0 mm 6 m/s 737 mmHg 72%
12:00 +1°C° 0 mm 6 m/s 737 mmHg 69%
13:00 +1°C° 0 mm 6 m/s 737 mmHg 66%
14:00 +2°C° 0 mm 7 m/s 737 mmHg 63%
15:00 +2°C° 0 mm 6 m/s 736 mmHg 65%
16:00 +2°C° 0 mm 6 m/s 736 mmHg 67%
17:00 +1°C° 0 mm 6 m/s 735 mmHg 68%
18:00 +1°C° 0 mm 6 m/s 735 mmHg 72%
19:00 +1°C° 0 mm 6 m/s 735 mmHg 75%
20:00 -1°C° 0 mm 7 m/s 735 mmHg 79%
21:00 -1°C° 0.2 mm 7 m/s 735 mmHg 84%
22:00 -1°C° 0.2 mm 7 m/s 735 mmHg 90%
23:00 -1°C° 0.2 mm 7 m/s 734 mmHg 95%

Amanhã, 1 Março, Segunda-feira

Tempo Temperatura Precipitação Vento Pressão Humidade
00:00 -1°C° 0.6 mm 6 m/s 735 mmHg 96%
01:00 -2°C° 0.6 mm 6 m/s 735 mmHg 96%
02:00 -1°C° 0.6 mm 5 m/s 736 mmHg 96%
03:00 -1°C° 0.1 mm 5 m/s 736 mmHg 96%
04:00 -1°C° 0.1 mm 4 m/s 736 mmHg 95%
05:00 -1°C° 0.1 mm 4 m/s 736 mmHg 95%
06:00 -1°C° 0 mm 4 m/s 737 mmHg 95%
07:00 -1°C° 0 mm 4 m/s 737 mmHg 95%
08:00 0°C° 0 mm 3 m/s 737 mmHg 95%
09:00 +1°C° 0 mm 3 m/s 738 mmHg 91%
10:00 +1°C° 0 mm 3 m/s 738 mmHg 87%
11:00 +2°C° 0 mm 3 m/s 739 mmHg 82%
12:00 +2°C° 0.1 mm 3 m/s 739 mmHg 81%
13:00 +2°C° 0.1 mm 3 m/s 739 mmHg 79%
14:00 +2°C° 0.1 mm 3 m/s 739 mmHg 77%
15:00 +2°C° 0 mm 3 m/s 739 mmHg 77%
16:00 +2°C° 0 mm 3 m/s 739 mmHg 76%
17:00 +2°C° 0 mm 3 m/s 739 mmHg 76%
18:00 +2°C° 0 mm 3 m/s 739 mmHg 79%
19:00 +1°C° 0 mm 3 m/s 740 mmHg 83%
20:00 +2°C° 0 mm 2 m/s 740 mmHg 86%
21:00 +1°C° 0 mm 2 m/s 740 mmHg 88%
22:00 +1°C° 0 mm 2 m/s 740 mmHg 90%
23:00 -1°C° 0 mm 2 m/s 740 mmHg 92%

Depois de amanhã, 2 Março, Terça-feira

Tempo Temperatura Precipitação Vento Pressão Humidade
00:00 -1°C° 0 mm 2 m/s 740 mmHg 92%
01:00 -1°C° 0 mm 2 m/s 740 mmHg 93%
02:00 -1°C° 0 mm 3 m/s 740 mmHg 93%
03:00 -1°C° 0 mm 3 m/s 740 mmHg 92%
04:00 0°C° 0 mm 3 m/s 739 mmHg 91%
05:00 -1°C° 0 mm 4 m/s 739 mmHg 90%
06:00 -1°C° 0 mm 4 m/s 739 mmHg 91%
07:00 -1°C° 0 mm 4 m/s 739 mmHg 92%
08:00 -1°C° 0 mm 4 m/s 738 mmHg 92%
09:00 0°C° 0 mm 5 m/s 738 mmHg 86%
10:00 +2°C° 0 mm 5 m/s 738 mmHg 79%
11:00 +4°C° 0 mm 6 m/s 738 mmHg 72%
12:00 +4°C° 0 mm 6 m/s 738 mmHg 70%
13:00 +5°C° 0 mm 6 m/s 738 mmHg 67%
14:00 +7°C° 0 mm 6 m/s 738 mmHg 64%
15:00 +7°C° 0 mm 6 m/s 738 mmHg 66%
16:00 +6°C° 0 mm 5 m/s 738 mmHg 67%
17:00 +6°C° 0 mm 5 m/s 738 mmHg 69%
18:00 +5°C° 0 mm 4 m/s 738 mmHg 74%
19:00 +4°C° 0 mm 3 m/s 738 mmHg 80%
20:00 +3°C° 0 mm 3 m/s 738 mmHg 86%
21:00 +2°C° 0 mm 3 m/s 738 mmHg 87%
22:00 +3°C° 0 mm 2 m/s 738 mmHg 88%
23:00 +2°C° 0 mm 2 m/s 738 mmHg 89%

3 Março, Quarta-feira

Tempo Temperatura Precipitação Vento Pressão Humidade
00:00 +2°C° 0 mm 2 m/s 738 mmHg 90%
01:00 +2°C° 0 mm 2 m/s 738 mmHg 90%
02:00 0°C° 0 mm 3 m/s 738 mmHg 91%
03:00 0°C° 0 mm 3 m/s 738 mmHg 91%
04:00 0°C° 0 mm 3 m/s 738 mmHg 91%
05:00 0°C° 0 mm 3 m/s 737 mmHg 91%
06:00 0°C° 0 mm 3 m/s 737 mmHg 91%
07:00 0°C° 0 mm 3 m/s 737 mmHg 91%
08:00 0°C° 0 mm 3 m/s 737 mmHg 90%
09:00 +1°C° 0 mm 3 m/s 737 mmHg 84%
10:00 +3°C° 0 mm 4 m/s 738 mmHg 78%
11:00 +5°C° 0 mm 4 m/s 738 mmHg 72%
12:00 +5°C° 0 mm 4 m/s 738 mmHg 70%
13:00 +6°C° 0 mm 4 m/s 737 mmHg 67%
14:00 +7°C° 0 mm 4 m/s 737 mmHg 65%
15:00 +8°C° 0 mm 3 m/s 737 mmHg 66%
16:00 +8°C° 0 mm 2 m/s 736 mmHg 67%
17:00 +8°C° 0 mm 2 m/s 736 mmHg 68%
18:00 +7°C° 0 mm 1 m/s 736 mmHg 72%
19:00 +6°C° 0 mm 1 m/s 736 mmHg 76%
20:00 +5°C° 0 mm 1 m/s 736 mmHg 80%
21:00 +5°C° 0 mm 1 m/s 736 mmHg 80%
22:00 +4°C° 0 mm 1 m/s 735 mmHg 81%
23:00 +4°C° 0 mm 1 m/s 735 mmHg 82%

4 Março, Quinta-feira

Tempo Temperatura Precipitação Vento Pressão Humidade
00:00 +4°C° 0 mm 1 m/s 735 mmHg 84%
01:00 +3°C° 0 mm 1 m/s 735 mmHg 85%
02:00 +2°C° 0 mm 2 m/s 734 mmHg 86%
03:00 +2°C° 0 mm 2 m/s 734 mmHg 86%
04:00 +1°C° 0 mm 2 m/s 733 mmHg 85%
05:00 +1°C° 0 mm 2 m/s 733 mmHg 85%
06:00 +1°C° 0 mm 2 m/s 732 mmHg 83%
07:00 +1°C° 0 mm 2 m/s 732 mmHg 81%
08:00 +1°C° 0 mm 2 m/s 732 mmHg 78%
09:00 +3°C° 0 mm 2 m/s 731 mmHg 73%
10:00 +4°C° 0 mm 3 m/s 731 mmHg 68%
11:00 +6°C° 0 mm 4 m/s 731 mmHg 62%
12:00 +7°C° 0 mm 4 m/s 730 mmHg 59%
13:00 +8°C° 0 mm 4 m/s 730 mmHg 57%
14:00 +9°C° 0 mm 5 m/s 729 mmHg 54%
15:00 +10°C° 0 mm 4 m/s 729 mmHg 56%
16:00 +10°C° 0 mm 4 m/s 729 mmHg 58%
17:00 +9°C° 0 mm 3 m/s 728 mmHg 60%
18:00 +8°C° 0 mm 3 m/s 728 mmHg 66%
19:00 +5°C° 0 mm 3 m/s 727 mmHg 71%
20:00 +4°C° 0 mm 3 m/s 727 mmHg 77%
21:00 +4°C° 0 mm 3 m/s 727 mmHg 78%
22:00 +3°C° 0 mm 3 m/s 727 mmHg 80%
23:00 +3°C° 0 mm 3 m/s 726 mmHg 81%

5 Março, Sexta-feira

Tempo Temperatura Precipitação Vento Pressão Humidade
00:00 +2°C° 0 mm 3 m/s 726 mmHg 81%
01:00 +2°C° 0 mm 3 m/s 726 mmHg 81%
02:00 +2°C° 0 mm 3 m/s 725 mmHg 81%
03:00 +1°C° 0 mm 4 m/s 725 mmHg 81%
04:00 +1°C° 0 mm 4 m/s 724 mmHg 81%
05:00 +1°C° 0 mm 4 m/s 724 mmHg 81%
06:00 +1°C° 0 mm 4 m/s 724 mmHg 80%
07:00 +2°C° 0 mm 5 m/s 724 mmHg 80%
08:00 +2°C° 0 mm 5 m/s 724 mmHg 79%
09:00 +3°C° 0 mm 5 m/s 724 mmHg 79%
10:00 +3°C° 0 mm 5 m/s 724 mmHg 79%
11:00 +5°C° 0 mm 5 m/s 724 mmHg 80%
12:00 +3°C° 0.2 mm 6 m/s 724 mmHg 82%
13:00 +2°C° 0.2 mm 6 m/s 724 mmHg 85%
14:00 +2°C° 0.2 mm 6 m/s 724 mmHg 87%
15:00 +2°C° 0 mm 6 m/s 724 mmHg 82%
16:00 +2°C° 0 mm 6 m/s 724 mmHg 77%
17:00 +2°C° 0 mm 6 m/s 724 mmHg 72%
18:00 +1°C° 0 mm 6 m/s 724 mmHg 76%
19:00 +1°C° 0 mm 6 m/s 724 mmHg 80%
20:00 0°C° 0 mm 5 m/s 725 mmHg 83%
21:00 -2°C° 0 mm 6 m/s 725 mmHg 83%
22:00 -3°C° 0 mm 6 m/s 726 mmHg 83%
23:00 -4°C° 0 mm 6 m/s 727 mmHg 83%
Mostrar mais

Necessitamos do seu Consentimento

A Meteoprog e os seus Fornecedores de Serviços podem armazenar e aceder a dados pessoais como cookies, identificadores do dispositivo ou outras tecnologias semelhantes existentes no seu dispositivo e processar estes dados para personalizar conteúdos e anúncios, assim como funcionalidades nas redes sociais e análise de tráfego.

  • Armazenar e/ou aceder a informações no seu dispositivo

    Os cookies, identificadores do dispositivo ou outras informações podem ser armazenados ou acedidos no seu dispositivo, para os fins acima indicados.

  • Anúncios e conteúdos personalizados, medição de anúncios e conteúdos, dados sobre o público-alvo e desenvolvimento de produtos

    Os anúncios e os conteúdos podem ser personalizados com base num perfil. Podem ser adicionados dados adicionais para uma maior personalização dos anúncios e dos conteúdos. A eficácia dos anúncios e dos conteúdos pode ser medida. Podem ser obtidas informações sobre o público que visualizou os anúncios e os conteúdos. Estes dados podem ser usados para desenvolver ou melhorar sistemas, softwares ou a experiência do utilizador.

Ao clicar em "Eu concordo”, permitirá o uso de cookies, identificadores do dispositivo e web beacons mencionados ou outras tecnologias semelhantes. As configurações do navegador do seu dispositivo podem ser alteradas.

Para certos fins, podem ser invocados interesses legítimos ao invés de consentimento. Pode ler mais informação sobre este assunto na nossa Política de Privacidade e Cookies.